Location: Gro�sch�nbrunn
(49.5760°N, 11.8868°E)
Time: 23:21:49
(UTC+00:00)

COSMOS 2406 - Pass Details

Date: 18 September 2020
Orbit: 844 x 863 km, 71.0° (Epoch: 31 October)

Event Time Altitude Azimuth Distance (km) Brightness Sun altitude
Rises 19:02:40 0° 334° (NNW) 3,415 7.2 -17.2°
Reaches altitude 10° 19:05:25 10° 345° (NNW) 2,476 6.2 -17.6°
Maximum altitude 19:10:26 31° 46° (NE) 1,447 4.2 -18.3°
Enters shadow 19:12:16 26° 79° (E) 1,622 4.2 -18.6°
